User: anonymous
Location: Columbus
(29.5618°N, 96.6770°W)
Time: 20:36:02
(UTC-05:00)
Language:

Iridium 59 - Orbit

View from above orbital plane
View from above orbital plane
View from above satellite
View from above satellite

Ground track
Ground track

The orbit data is extracted from the following two-line orbital elements,

1 25275U 98019D   14294.18445000  .00000625  00000-0  21619-3 0  5564
2 25275 086.3955 332.8351 0002285 104.5156 255.6293 14.34219087867038
Epoch (UTC): 21 October 2014 04:25:36
Eccentricity: 0.0002285
inclination: 86.3955°
perigee height: 776 km
apogee height: 779 km
right ascension of ascending node: 332.8351°
argument of perigee: 104.5156°
revolutions per day: 14.34219087
mean anomaly at epoch: 255.6293°
orbit number at epoch: 86703

The dashed part of the orbit path shows where the satellite is in the earth's shadow,  

DLR